Location: Sungai Basurau
(2.6667°N, 113.5833°E)
Time: 01:35:49
(UTC+00:00)

Daily predictions for brighter satellites

Satellite Brightness Start Highest point End
(mag) Time Altitude Azimuth Time Altitude Azimuth Time Altitude Azimuth
Meteor 2-4 Rocket 3.8 10:47:49 10° S 10:53:44 73° E 10:59:35 10° N
Cosmos 1697 Rocket 4.3 10:50:32 10° NE 10:53:47 16° ENE 10:57:02 10° ESE
CZ-2C R/B 2.9 10:53:05 10° S 10:56:35 66° WSW 11:00:01 10° NNW
USA 215 3.8 10:53:02 10° ESE 10:59:13 45° NE 11:05:22 10° NNW
CZ-4 R/B 4.4 10:56:39 10° SSE 11:00:42 71° E 11:04:45 10° N
Cosmos 1805 Rocket 4.1 10:56:50 10° NNE 11:00:55 38° E 11:05:00 10° SSE
Cosmos 44 Rocket 3.3 10:56:32 10° N 11:01:07 59° ENE 11:05:39 10° SSE
Cosmos 1536 2.9 10:57:50 10° N 11:01:46 84° W 11:05:43 10° S
SKYMED 3 4.3 11:01:34 10° NNE 11:05:35 85° ESE 11:09:36 10° S
SAR-Lupe-2 4.0 11:03:11 10° SSE 11:06:33 41° ENE 11:09:55 10° N
HETE-2 4.5 11:02:41 10° W 11:06:37 68° S 11:10:29 10° E
Meteor 1-11 Rocket 3.9 11:01:31 10° N 11:07:29 83° E 11:13:24 10° S
Cosmos 1428 Rocket 4.4 11:02:28 10° S 11:08:31 68° E 11:14:33 10° N
Cosmos 1805 4.4 11:08:06 10° NE 11:10:59 22° E 11:13:35 11° SE
Helios 1B rocket 2.9 11:09:32 10° S 11:13:21 58° WSW 11:17:08 10° NNW
Landsat 7 4.3 11:12:52 10° SE 11:17:13 38° ENE 11:21:33 10° N
OAO 3 Rocket 3.2 11:13:51 10° NW 11:18:25 63° NE 11:22:03 16° ESE
Star 37E S/N 40062 3.2 11:16:51 10° WSW 11:20:45 62° NW 11:22:42 10° NE
Fermi 3.8 11:17:58 10° SW 11:21:53 54° SSE 11:25:24 12° ENE
Cosmos 1328 Rocket 3.7 11:22:27 10° S 11:26:45 74° W 11:31:00 10° N
SWIFT 4.1 11:24:05 10° W 11:27:29 27° NNW 11:30:54 10° NE
CZ-4 R/B 3.2 11:29:37 14° ENE 11:29:37 14° ENE 11:31:28 10° NE
ARIANE 5 R/B 3.4 02:58:22 10° W 11:33:11 82° S 11:36:05 21° E
Radarsat Rocket 4.2 11:28:13 10° SSE 11:34:23 83° WSW 11:41:17 10° NNW
FALCON 9 R/B 4.4 11:33:31 10° NNE 11:36:48 16° NE 11:40:50 12° E
Cosmos 2360 4.2 11:36:11 10° NNW 11:41:54 88° WSW 11:47:09 12° SSE
USA 59 Rocket 3.3 11:38:15 10° WNW 11:44:07 27° WSW 11:51:27 10° S
Cosmos 1850 Rocket 4.3 11:42:06 10° S 11:47:05 43° ESE 11:52:01 10° NNE
Ariane H10+ 2.5 11:43:25 10° W 11:47:47 51° SSW 11:48:11 45° SSE
Cosmos 1674 2.4 11:44:35 10° S 11:48:03 83° W 11:51:29 10° N
KORONAS-FOTON 3.5 11:47:07 20° S 11:49:35 68° E 11:53:15 10° N
USA 234 3.2 11:43:19 10° NE 11:49:51 90° SE 11:56:24 10° SW
Meteor 2-12 Rocket 4.4 11:44:10 10° S 11:50:12 60° E 11:56:14 10° NNE
Palapa B4 Rocket 3.6 11:46:46 10° SW 11:50:30 31° SSE 11:50:30 31° SSE
Cosmos 1975 2.6 11:46:51 10° N 11:50:38 64° E 11:51:53 38° SSE
ATLAS CENTAUR R/B 4.5 11:54:34 10° W 11:56:16 13° WNW 11:57:57 10° NW
